Weather History for Benson, United Kingdom

Change the Weather History Date:

Saturday, September 7, 2013

  Actual Average Record
Temperature  
Mean Temperature 59 °F -  
Max Temperature 68 °F 62 °F 77 °F (2005)
Min Temperature 50 °F 47 °F 41 °F (2000)
Degree Days  
Heating Degree Days 6    
Growing Degree Days 9 (Base 50)    
Moisture  
Dew Point 47 °F    
Average Humidity 74    
Maximum Humidity 94    
Minimum Humidity 34    
Precipitation  
Precipitation 0.12 in - - ()
Sea Level Pressure  
Sea Level Pressure 29.92 in    
Wind  
Wind Speed 8 mph ()    
Max Wind Speed 15 mph    
Max Gust Speed -    
Visibility 7.6 miles    
Events      
Averages and records for this station are not official NWS values.
T = Trace of Precipitation, MM = Missing Value Source: Averaged Metar Reports

Daily Weather History Graph

Daily Weather History Graph

Search for Another Location

Airport:

Trip Planner

Search our weather history database for the weather conditions in past years. The results will help you decide how hot, cold, wet, or windy it might be!

Date:

Astronomy

Sep. 07, 2013 Rise Set
Actual Time 6:26 AM BST 7:37 PM BST
Civil Twilight 5:52 AM BST 8:11 PM BST
Nautical Twilight 5:10 AM BST 8:52 PM BST
Astronomical Twilight 4:25 AM BST 9:37 PM BST
Moon 8:46 AM BST (9/7) 8:03 PM BST (9/7)
Length of Visible Light 14h 19m
Length of Day
13h 10m
Waxing Crescent, 4% of the Moon is Illuminated
Sep 7
Waxing Crescent
Sep 12
First Quarter
Sep 19
Full
Sep 27
Last Quarter
Oct 5
New

Hourly Weather History & Observations

Time (BST) Temp. Dew Point Humidity Pressure Visibility Wind Dir Wind Speed Gust Speed Precip Events Conditions
12:50 AM 53 °F 47 °F 75% 29.82 in 22 mi SSE 9.2 mph - -   Mostly Cloudy
12:50 AM 51.8 °F 48.2 °F 88% 29.80 in 6.2 mi SSE 9.2 mph - N/A   Mostly Cloudy
1:50 AM 51.8 °F 48.2 °F 88% 29.83 in 6.2 mi SSE 9.2 mph - N/A   Partly Cloudy
2:50 AM 50.0 °F 46.4 °F 87% 29.83 in 6.2 mi SSE 8.1 mph - N/A   Partly Cloudy
3:50 AM 51 °F 49 °F 88% 29.84 in 19 mi SE 10.4 mph - -   Partly Cloudy
3:50 AM 51.8 °F 48.2 °F 88% 29.83 in 6.2 mi SE 10.4 mph - N/A   Scattered Clouds
4:50 AM 50.0 °F 48.2 °F 94% 29.83 in 6.2 mi SE 11.5 mph - N/A   Partly Cloudy
5:50 AM 51.8 °F 48.2 °F 88% 29.83 in 6.2 mi SSE 10.4 mph - N/A   Mostly Cloudy
6:50 AM 50.0 °F 46.4 °F 87% 29.86 in 6.2 mi SSE 10.4 mph - N/A   Partly Cloudy
7:50 AM 50.0 °F 46.4 °F 87% 29.86 in 6.2 mi SSE 9.2 mph - N/A   Unknown
8:50 AM 55.4 °F 50.0 °F 82% 29.89 in 6.2 mi South 9.2 mph - N/A   Unknown
9:50 AM 58 °F 48 °F 61% 29.91 in 25 mi South 8.1 mph - -   Scattered Clouds
9:50 AM 57.2 °F 48.2 °F 72% 29.89 in 6.2 mi South 8.1 mph - N/A   Partly Cloudy
10:50 AM 59.0 °F 44.6 °F 59% 29.92 in 6.2 mi SSW 9.2 mph - N/A   Partly Cloudy
11:50 AM 62.6 °F 41.0 °F 45% 29.92 in 6.2 mi SSW 11.5 mph - N/A   Unknown
12:50 PM 64 °F 43 °F 34% 29.93 in 28 mi SW 9.2 mph - -   Mostly Cloudy
12:50 PM 64.4 °F 42.8 °F 45% 29.92 in 6.2 mi SW 9.2 mph - N/A   Scattered Clouds
1:50 PM 66.2 °F 39.2 °F 37% 29.92 in 6.2 mi South 13.8 mph - N/A   Mostly Cloudy
2:50 PM 66.2 °F 41.0 °F 40% 29.92 in 6.2 mi South 12.7 mph - N/A   Scattered Clouds
3:50 PM 62 °F 43 °F 38% 29.95 in 22 mi WSW 9.2 mph - -   Mostly Cloudy
3:50 PM 62.6 °F 42.8 °F 48% 29.95 in 6.2 mi WSW 9.2 mph - N/A   Mostly Cloudy
4:50 PM 62.6 °F 42.8 °F 48% 29.95 in 6.2 mi South 8.1 mph - N/A   Mostly Cloudy
5:50 PM 53.6 °F 48.2 °F 82% 29.98 in 6.2 mi SSW 15.0 mph - N/A   Mostly Cloudy
6:50 PM 54 °F 51 °F 84% 29.99 in 19 mi South 8.1 mph - -   Mostly Cloudy
6:50 PM 53.6 °F 50.0 °F 88% 29.98 in 6.2 mi South 8.1 mph - N/A   Mostly Cloudy
7:50 PM 51.8 °F 50.0 °F 94% 30.01 in 6.2 mi South 9.2 mph - N/A   Partly Cloudy
8:50 PM 51.8 °F 50.0 °F 94% 30.01 in 6.2 mi South 6.9 mph - N/A   Mostly Cloudy
9:50 PM 50 °F 48 °F 91% 30.04 in 18 mi South 5.8 mph - -   Mostly Cloudy
9:50 PM 50.0 °F 48.2 °F 94% 30.04 in 6.2 mi South 5.8 mph - N/A   Mostly Cloudy
10:50 PM 50.0 °F 48.2 °F 94% 30.04 in 6.2 mi SSE 4.6 mph - N/A   Scattered Clouds
11:50 PM 50.0 °F 46.4 °F 87% 30.04 in 6.2 mi SSE 6.9 mph - N/A   Mostly Cloudy